This demonstration page uses our WeatherBlox Daily Observations layout. Learn more.

Left ArrowRight Arrow

Hourly Observations for September 14, 2022

Temp ( °F °C ) Dew Point ( °F °C ) Humidity (%) Winds ( mph kmh ) Pressure ( in mb ) Visibility ( mi km ) Precip ( " mm )
12:53 am 00:53 Clear 78 25.6 60 15.6 54 54 NE 9 15 29.97 1015 10 16 0.00 0.00
1:53 am 01:53 Mostly Clear 77 25 62 16.7 60 60 ENE 12 19 29.95 1014 10 16 0.00 0.00
2:53 am 02:53 Mostly Clear 78 25.6 63 17.2 60 60 NE 12 19 29.93 1014 10 16 0.00 0.00
3:53 am 03:53 Clear 76 24.4 62 16.7 62 62 NNE 10 17 29.93 1013 10 16 0.00 0.00
4:53 am 04:53 Clear 75 23.9 61 16.1 62 62 NNW 3 6 29.94 1014 10 16 0.00 0.00
5:53 am 05:53 Clear 75 23.9 62 16.7 64 64 Calm 29.94 1014 10 16 0.00 0.00
6:53 am 06:53 Sunny 76 24.4 64 17.8 67 67 ESE 5 7 29.95 1014 10 16 0.00 0.00
7:53 am 07:53 Sunny 80 26.7 66 18.9 62 62 Calm 29.96 1015 10 16 0.00 0.00
8:53 am 08:53 Sunny 81 27.2 64 17.8 57 57 S 8 13 29.97 1015 10 16 0.00 0.00
9:53 am 09:53 Sunny 82 27.8 65 18.3 56 56 SSW 12 19 29.97 1015 10 16 0.00 0.00
10:53 am 10:53 Sunny 83 28.3 66 18.9 57 57 SSW 12 19 29.97 1015 10 16 0.00 0.00
11:53 am 11:53 Sunny 84 28.9 67 19.4 57 57 SSW 13 20 29.96 1014 10 16 0.00 0.00
12:53 pm 12:53 Sunny 84 28.9 68 20 59 59 SSW 13 20 29.94 1014 10 16 0.00 0.00
1:53 pm 13:53 Sunny 84 28.9 66 18.9 55 55 WSW 9 15 29.94 1014 10 16 0.00 0.00
2:53 pm 14:53 Mostly Sunny 82 27.8 67 19.4 60 60 WSW 10 17 29.93 1013 10 16 0.00 0.00
3:53 pm 15:53 Sunny 81 27.2 68 20 65 65 WSW 8 13 29.93 1013 10 16 0.00 0.00
4:53 pm 16:53 Mostly Sunny 80 26.7 69 20.6 69 69 SW 8 13 29.93 1014 10 16 0.00 0.00
5:53 pm 17:53 Mostly Sunny 79 26.1 71 21.7 77 77 WSW 8 13 29.94 1014 10 16 0.00 0.00
6:53 pm 18:53 Clear 77 25 71 21.7 82 82 SSW 7 11 29.96 1014 10 16 0.00 0.00
7:53 pm 19:53 Clear 79 26.1 71 21.7 77 77 SSW 7 11 29.98 1015 10 16 0.00 0.00
8:53 pm 20:53 Clear 78 25.6 71 21.7 79 79 S 7 11 30.00 1016 10 16 0.00 0.00
9:53 pm 21:53 Clear 78 25.6 71 21.7 79 79 S 5 7 30.00 1016 10 16 0.00 0.00
10:53 pm 22:53 Clear 78 25.6 71 21.7 79 79 Calm 30.00 1016 10 16 0.00 0.00
11:53 pm 23:53 Clear 77 25 70 21.1 79 79 ESE 5 7 30.00 1016 10 16 0.00 0.00

Powered by AerisWeather